TimeEDT,TemperatureF,Dew PointF,Humidity,Sea Level PressureIn,VisibilityMPH,Wind Direction,Wind SpeedMPH,Gust SpeedMPH,PrecipitationIn,Events,Conditions,WindDirDegrees,DateUTC
12:20 AM,71.6,68.0,88,29.98,10.0,SSW,3.5,-,0.00,Rain,Light Rain,200,2013-06-27 04:20:00
12:53 AM,70.0,69.1,97,29.93,10.0,SSW,4.6,-,0.01,Rain,Light Rain,200,2013-06-27 04:53:00
1:53 AM,70.0,68.0,93,29.93,10.0,SSW,6.9,-,0.00,,Clear,200,2013-06-27 05:53:00
2:53 AM,70.0,68.0,93,29.95,10.0,SSW,4.6,-,N/A,,Clear,210,2013-06-27 06:53:00
3:53 AM,71.1,69.1,93,29.96,10.0,SSW,4.6,-,N/A,,Clear,210,2013-06-27 07:53:00
4:17 AM,71.6,69.8,94,29.95,10.0,South,4.6,-,N/A,,Mostly Cloudy,180,2013-06-27 08:17:00
4:53 AM,72.0,70.0,93,29.94,10.0,South,4.6,-,N/A,,Scattered Clouds,190,2013-06-27 08:53:00
5:53 AM,73.9,72.0,93,29.94,10.0,South,8.1,-,N/A,,Clear,190,2013-06-27 09:53:00
6:53 AM,75.9,73.9,94,29.94,10.0,SSW,6.9,-,N/A,,Clear,210,2013-06-27 10:53:00
7:53 AM,77.0,75.0,94,29.93,10.0,SSW,9.2,-,N/A,,Partly Cloudy,200,2013-06-27 11:53:00
8:53 AM,79.0,75.0,88,29.93,10.0,SW,11.5,18.4,N/A,,Mostly Cloudy,220,2013-06-27 12:53:00
9:53 AM,82.0,75.0,79,29.91,10.0,SW,13.8,18.4,N/A,,Scattered Clouds,220,2013-06-27 13:53:00
10:53 AM,80.1,73.9,81,29.91,10.0,SSW,12.7,19.6,N/A,,Clear,200,2013-06-27 14:53:00
11:53 AM,84.0,75.9,76,29.90,10.0,SSW,12.7,-,N/A,,Scattered Clouds,200,2013-06-27 15:53:00
12:08 PM,82.4,75.2,79,29.90,10.0,South,15.0,21.9,N/A,,Mostly Cloudy,180,2013-06-27 16:08:00
12:17 PM,82.4,75.2,79,29.90,10.0,SSW,13.8,-,N/A,,Scattered Clouds,210,2013-06-27 16:17:00
12:53 PM,82.9,75.9,79,29.89,10.0,South,16.1,-,N/A,,Scattered Clouds,190,2013-06-27 16:53:00
1:53 PM,84.9,77.0,77,29.87,10.0,SSW,15.0,-,N/A,,Partly Cloudy,200,2013-06-27 17:53:00
2:53 PM,87.1,77.0,72,29.84,10.0,South,13.8,19.6,N/A,,Partly Cloudy,190,2013-06-27 18:53:00
3:53 PM,87.1,75.9,69,29.81,10.0,SSW,17.3,26.5,N/A,,Partly Cloudy,200,2013-06-27 19:53:00
4:53 PM,86.0,75.0,70,29.82,10.0,SW,21.9,28.8,N/A,,Partly Cloudy,220,2013-06-27 20:53:00
5:53 PM,84.9,75.0,72,29.77,10.0,South,18.4,23.0,N/A,,Partly Cloudy,190,2013-06-27 21:53:00
6:53 PM,82.9,73.0,72,29.81,10.0,SSW,12.7,18.4,N/A,,Clear,200,2013-06-27 22:53:00
7:53 PM,81.0,71.1,72,29.83,10.0,SW,8.1,-,N/A,,Mostly Cloudy,220,2013-06-27 23:53:00
8:53 PM,78.1,71.1,79,29.82,10.0,South,10.4,-,0.01,Rain,Light Rain,180,2013-06-28 00:53:00
9:23 PM,78.8,71.6,78,29.82,10.0,South,6.9,-,0.00,Rain-Thunderstorm,Light Rain,190,2013-06-28 01:23:00
9:35 PM,75.2,71.6,89,29.84,1.5,West,18.4,27.6,0.01,Rain-Thunderstorm,Heavy Thunderstorms and Rain,260,2013-06-28 01:35:00
9:38 PM,73.4,69.8,88,29.84,0.8,West,19.6,27.6,0.20,Rain-Thunderstorm,Heavy Thunderstorms and Rain,260,2013-06-28 01:38:00
9:47 PM,73.4,68.0,83,29.83,1.0,Variable,4.6,25.3,0.62,Rain-Thunderstorm,Heavy Thunderstorms and Rain,0,2013-06-28 01:47:00
9:53 PM,72.0,68.0,87,29.83,2.5,ESE,5.8,-,0.70,Rain-Thunderstorm,Light Thunderstorms and Rain,120,2013-06-28 01:53:00
9:58 PM,73.4,69.8,88,29.83,7.0,East,6.9,-,0.00,Rain-Thunderstorm,Light Thunderstorms and Rain,100,2013-06-28 01:58:00
10:31 PM,75.2,73.4,94,29.82,10.0,SSW,10.4,-,0.03,Rain,Light Rain,210,2013-06-28 02:31:00
10:53 PM,75.9,73.9,94,29.84,5.0,WSW,11.5,-,0.06,Rain-Thunderstorm,Light Rain,240,2013-06-28 02:53:00
10:57 PM,75.2,73.4,94,29.85,2.0,WSW,19.6,23.0,0.03,Rain,Heavy Rain,240,2013-06-28 02:57:00
11:00 PM,75.2,73.4,94,29.85,1.5,WSW,27.6,40.3,0.11,Rain-Thunderstorm,Heavy Rain,240,2013-06-28 03:00:00
11:04 PM,73.4,71.6,94,29.86,0.8,WSW,29.9,40.3,0.21,Rain-Thunderstorm,Heavy Thunderstorms and Rain,250,2013-06-28 03:04:00
11:22 PM,71.6,69.8,94,29.86,1.0,SW,6.9,-,0.91,Rain-Thunderstorm,Heavy Thunderstorms and Rain,220,2013-06-28 03:22:00
11:32 PM,73.4,71.6,94,29.84,1.2,Variable,3.5,-,1.21,Rain-Thunderstorm,Heavy Thunderstorms and Rain,0,2013-06-28 03:32:00
11:42 PM,73.4,71.6,94,29.84,2.0,South,9.2,-,1.40,Rain-Thunderstorm,Heavy Thunderstorms and Rain,170,2013-06-28 03:42:00
11:45 PM,73.4,71.6,94,29.84,3.0,South,9.2,-,1.41,Rain-Thunderstorm,Thunderstorms and Rain,180,2013-06-28 03:45:00
11:53 PM,73.9,73.0,97,29.83,8.0,South,6.9,-,1.42,Rain-Thunderstorm,Light Thunderstorms and Rain,190,2013-06-28 03:53:00